| time (UTC) | temp F | wind direction | speed MPH | gust MPH | rain 1hr in | rain 24hr in | rain mn in | humidity % | barometer mb |
| 20260507231952 | 46 | 0.0 | 0.0 | 0.00 | 0.00 | 0.00 | 86 | 1029.7 | |
| 20260507230952 | 46 | 0.0 | 0.0 | 0.00 | 0.00 | 0.00 | 86 | 1029.6 | |
| 20260507225952 | 47 | 0.0 | 0.0 | 0.00 | 0.00 | 0.00 | 85 | 1029.6 | |
| 20260507224952 | 47 | 0.0 | 0.0 | 0.00 | 0.00 | 0.00 | 85 | 1029.5 | |
| 20260507223952 | 47 | 0.0 | 0.0 | 0.00 | 0.00 | 0.00 | 85 | 1029.5 | |
| 20260507222952 | 47 | 0.0 | 0.0 | 0.00 | 0.00 | 0.00 | 85 | 1029.5 | |
| 20260507221952 | 47 | 0.0 | 0.0 | 0.00 | 0.00 | 0.00 | 84 | 1029.5 | |
| 20260507220952 | 47 | 0.0 | 0.0 | 0.00 | 0.00 | 0.00 | 84 | 1029.5 | |
| 20260507215952 | 47 | 0.0 | 0.0 | 0.00 | 0.00 | 0.00 | 85 | 1029.5 | |
| 20260507214952 | 47 | 0.0 | 0.0 | 0.00 | 0.00 | 0.00 | 84 | 1029.5 | |
| 20260507213952 | 48 | 0.0 | 0.0 | 0.00 | 0.00 | 0.00 | 83 | 1029.6 | |
| 20260507212952 | 48 | 0.0 | 0.0 | 0.00 | 0.00 | 0.00 | 83 | 1029.6 | |
| 20260507211952 | 48 | 0.0 | 0.0 | 0.00 | 0.00 | 0.00 | 83 | 1029.5 | |
| 20260507210952 | 48 | 0.0 | 0.0 | 0.00 | 0.00 | 0.00 | 83 | 1029.4 | |
| 20260507205952 | 48 | 0.0 | 0.0 | 0.00 | 0.00 | 0.00 | 82 | 1029.3 | |
| 20260507204952 | 48 | 0.0 | 0.0 | 0.00 | 0.00 | 0.00 | 82 | 1029.4 | |
| 20260507203952 | 49 | 0.0 | 0.0 | 0.00 | 0.00 | 0.00 | 81 | 1029.3 | |
| 20260507202952 | 50 | 0.0 | 0.0 | 0.00 | 0.00 | 0.00 | 80 | 1029.3 | |
| 20260507201952 | 50 | 0.0 | 0.0 | 0.00 | 0.00 | 0.00 | 80 | 1029.2 | |
| 20260507200952 | 50 | 0.0 | 0.0 | 0.00 | 0.00 | 0.00 | 80 | 1029.2 | |
| 20260507195952 | 50 | 0.0 | 0.0 | 0.00 | 0.00 | 0.00 | 78 | 1029.2 | |
| 20260507194952 | 50 | 0.0 | 0.0 | 0.00 | 0.00 | 0.00 | 78 | 1029.3 | |
| 20260507193952 | 51 | 0.0 | 0.0 | 0.00 | 0.00 | 0.00 | 78 | 1029.3 | |
| 20260507192952 | 51 | 0.0 | 0.0 | 0.00 | 0.00 | 0.00 | 78 | 1029.2 | |
| 20260507191951 | 51 | 0.0 | 0.0 | 0.00 | 0.00 | 0.00 | 77 | 1029.2 | |
| 20260507190952 | 52 | 0.0 | 0.0 | 0.00 | 0.00 | 0.00 | 76 | 1029.3 | |
| 20260507185952 | 52 | 0.0 | 0.0 | 0.00 | 0.00 | 0.00 | 75 | 1029.2 | |
| 20260507184952 | 53 | 0.0 | 0.0 | 0.00 | 0.00 | 0.00 | 74 | 1029.2 | |
| 20260507183952 | 53 | 0.0 | 0.0 | 0.00 | 0.00 | 0.00 | 75 | 1029.2 | |
| 20260507182952 | 53 | 0.0 | 0.0 | 0.00 | 0.00 | 0.00 | 74 | 1029.2 | |
| 20260507181951 | 54 | 0.0 | 0.0 | 0.00 | 0.00 | 0.00 | 73 | 1029.1 | |
| 20260507180951 | 54 | 0.0 | 0.0 | 0.00 | 0.00 | 0.00 | 72 | 1029.0 | |
| 20260507175951 | 55 | 0.0 | 0.0 | 0.00 | 0.00 | 0.00 | 72 | 1028.9 | |
| 20260507174952 | 55 | 0.0 | 0.0 | 0.00 | 0.00 | 0.00 | 71 | 1028.8 | |
| 20260507173951 | 56 | 0.0 | 0.0 | 0.00 | 0.00 | 0.00 | 70 | 1028.8 | |
| 20260507172951 | 57 | 0.0 | 0.0 | 0.00 | 0.00 | 0.00 | 69 | 1028.7 | |
| 20260507171951 | 57 | 0.0 | 0.0 | 0.00 | 0.00 | 0.00 | 69 | 1028.7 | |
| 20260507170952 | 58 | 0.0 | 0.0 | 0.00 | 0.00 | 0.00 | 68 | 1028.7 | |
| 20260507165951 | 58 | 0.0 | 0.0 | 0.00 | 0.00 | 0.00 | 67 | 1028.7 | |
| 20260507164951 | 60 | 0.0 | 0.0 | 0.00 | 0.00 | 0.00 | 65 | 1028.7 | |
| 20260507163951 | 61 | 0.0 | 0.0 | 0.00 | 0.00 | 0.00 | 63 | 1028.7 | |
| 20260507162951 | 63 | 0.0 | 0.0 | 0.00 | 0.00 | 0.00 | 60 | 1028.6 | |
| 20260507161951 | 65 | 0.0 | 0.0 | 0.00 | 0.00 | 0.00 | 56 | 1028.6 | |
| 20260507160951 | 67 | 0.0 | 0.0 | 0.00 | 0.00 | 0.00 | 55 | 1028.5 | |
| 20260507155951 | 69 | 0.0 | 0.0 | 0.00 | 0.00 | 0.00 | 50 | 1028.6 | |
| 20260507154951 | 70 | 0.0 | 0.0 | 0.00 | 0.00 | 0.00 | 43 | 1028.6 | |
| 20260507153951 | 70 | 0.0 | 0.0 | 0.00 | 0.00 | 0.00 | 40 | 1028.5 | |
| 20260507152951 | 71 | 0.0 | 0.0 | 0.00 | 0.00 | 0.00 | 40 | 1028.5 | |
| 20260507151951 | 71 | 0.0 | 0.0 | 0.00 | 0.00 | 0.00 | 39 | 1028.5 | |
| 20260507150951 | 70 | 0.0 | 0.0 | 0.00 | 0.00 | 0.00 | 36 | 1028.6 | |
| 20260507145951 | 72 | 0.0 | 0.0 | 0.00 | 0.00 | 0.00 | 37 | 1028.7 | |
| 20260507144951 | 72 | 0.0 | 0.0 | 0.00 | 0.00 | 0.00 | 37 | 1028.7 | |
| 20260507143951 | 72 | 0.0 | 0.0 | 0.00 | 0.00 | 0.00 | 37 | 1028.8 | |
| 20260507142951 | 72 | 0.0 | 0.0 | 0.00 | 0.00 | 0.00 | 37 | 1028.8 | |
| 20260507141951 | 72 | 0.0 | 0.0 | 0.00 | 0.00 | 0.00 | 35 | 1028.9 | |
| 20260507140951 | 73 | 0.0 | 0.0 | 0.00 | 0.00 | 0.00 | 36 | 1028.8 | |
| 20260507135951 | 73 | 0.0 | 0.0 | 0.00 | 0.00 | 0.00 | 36 | 1028.8 | |
| 20260507134951 | 73 | 0.0 | 0.0 | 0.00 | 0.00 | 0.00 | 36 | 1028.7 | |
| 20260507133951 | 74 | 0.0 | 0.0 | 0.00 | 0.00 | 0.00 | 38 | 1028.6 | |
| 20260507132951 | 73 | 0.0 | 0.0 | 0.00 | 0.00 | 0.00 | 38 | 1028.6 | |
| 20260507131951 | 73 | 0.0 | 0.0 | 0.00 | 0.00 | 0.00 | 37 | 1028.6 | |
| 20260507130951 | 73 | 0.0 | 0.0 | 0.00 | 0.00 | 0.00 | 35 | 1028.7 | |
| 20260507125951 | 74 | 0.0 | 0.0 | 0.00 | 0.00 | 0.00 | 37 | 1028.7 | |
| 20260507124951 | 74 | 0.0 | 0.0 | 0.00 | 0.00 | 0.00 | 37 | 1028.8 | |
| 20260507123951 | 73 | 0.0 | 0.0 | 0.00 | 0.00 | 0.00 | 38 | 1028.8 | |
| 20260507122951 | 75 | 0.0 | 0.0 | 0.00 | 0.00 | 0.00 | 38 | 1029.0 | |
| 20260507121951 | 76 | 0.0 | 0.0 | 0.00 | 0.00 | 0.00 | 36 | 1029.0 | |
| 20260507120951 | 76 | 0.0 | 0.0 | 0.00 | 0.00 | 0.00 | 37 | 1029.1 | |
| 20260507115951 | 78 | 0.0 | 0.0 | 0.00 | 0.00 | 0.00 | 39 | 1029.3 | |
| 20260507114951 | 76 | 0.0 | 0.0 | 0.00 | 0.00 | 0.00 | 39 | 1029.3 | |
| 20260507113951 | 79 | 0.0 | 0.0 | 0.00 | 0.00 | 0.00 | 40 | 1029.4 | |
| 20260507112951 | 78 | 0.0 | 0.0 | 0.00 | 0.00 | 0.00 | 40 | 1029.5 | |
| 20260507111951 | 78 | 0.0 | 0.0 | 0.00 | 0.00 | 0.00 | 42 | 1029.5 | |
| 20260507110951 | 78 | 0.0 | 0.0 | 0.00 | 0.00 | 0.00 | 41 | 1029.5 | |
| 20260507105951 | 79 | 0.0 | 0.0 | 0.00 | 0.00 | 0.00 | 41 | 1029.4 | |
| 20260507104951 | 79 | 0.0 | 0.0 | 0.00 | 0.00 | 0.00 | 42 | 1029.5 | |
| 20260507103951 | 78 | 0.0 | 0.0 | 0.00 | 0.00 | 0.00 | 44 | 1029.5 | |
| 20260507102951 | 77 | 0.0 | 0.0 | 0.00 | 0.00 | 0.00 | 44 | 1029.4 | |
| 20260507101951 | 77 | 0.0 | 0.0 | 0.00 | 0.00 | 0.00 | 43 | 1029.5 | |
| 20260507100951 | 77 | 0.0 | 0.0 | 0.00 | 0.00 | 0.00 | 44 | 1029.4 | |
| 20260507095951 | 77 | 0.0 | 0.0 | 0.00 | 0.00 | 0.00 | 44 | 1029.4 | |
| 20260507094951 | 75 | 0.0 | 0.0 | 0.00 | 0.00 | 0.00 | 46 | 1029.3 | |
| 20260507093951 | 73 | 0.0 | 0.0 | 0.00 | 0.00 | 0.00 | 47 | 1029.3 | |
| 20260507092951 | 74 | 0.0 | 0.0 | 0.00 | 0.00 | 0.00 | 42 | 1029.4 | |
| 20260507091951 | 74 | 0.0 | 0.0 | 0.00 | 0.00 | 0.00 | 43 | 1029.5 | |
| 20260507090951 | 75 | 0.0 | 0.0 | 0.00 | 0.00 | 0.00 | 42 | 1029.6 | |
| 20260507085951 | 75 | 0.0 | 0.0 | 0.00 | 0.00 | 0.00 | 39 | 1029.7 | |
| 20260507084951 | 74 | 0.0 | 0.0 | 0.00 | 0.00 | 0.00 | 40 | 1029.7 | |
| 20260507083951 | 73 | 0.0 | 0.0 | 0.00 | 0.00 | 0.00 | 41 | 1029.7 | |
| 20260507082951 | 73 | 0.0 | 0.0 | 0.00 | 0.00 | 0.00 | 44 | 1029.8 | |
| 20260507081951 | 71 | 0.0 | 0.0 | 0.00 | 0.00 | 0.00 | 42 | 1029.9 | |
| 20260507080951 | 71 | 0.0 | 0.0 | 0.00 | 0.00 | 0.00 | 44 | 1029.8 | |
| 20260507075951 | 69 | 0.0 | 0.0 | 0.00 | 0.00 | 0.00 | 51 | 1029.9 | |
| 20260507074951 | 68 | 0.0 | 0.0 | 0.00 | 0.00 | 0.00 | 52 | 1029.9 | |
| 20260507073951 | 68 | 0.0 | 0.0 | 0.00 | 0.00 | 0.00 | 52 | 1029.9 | |
| 20260507072951 | 68 | 0.0 | 0.0 | 0.00 | 0.00 | 0.00 | 56 | 1030.0 | |
| 20260507071951 | 66 | 0.0 | 0.0 | 0.00 | 0.00 | 0.00 | 56 | 1030.0 | |
| 20260507070951 | 65 | 0.0 | 0.0 | 0.00 | 0.00 | 0.00 | 58 | 1030.0 | |
| 20260507065951 | 64 | 0.0 | 0.0 | 0.00 | 0.00 | 0.00 | 58 | 1030.0 | |
| 20260507064950 | 62 | 0.0 | 0.0 | 0.00 | 0.00 | 0.00 | 62 | 1030.0 | |
| 20260507063951 | 61 | 0.0 | 0.0 | 0.00 | 0.00 | 0.00 | 67 | 1030.0 | |
| 20260507062951 | 60 | 0.0 | 0.0 | 0.00 | 0.00 | 0.00 | 67 | 1030.1 | |
| 20260507061950 | 59 | 0.0 | 0.0 | 0.00 | 0.00 | 0.00 | 70 | 1030.1 | |
| 20260507060950 | 57 | 0.0 | 0.0 | 0.00 | 0.00 | 0.00 | 70 | 1030.2 | |
| 20260507055950 | 56 | 0.0 | 0.0 | 0.00 | 0.00 | 0.00 | 72 | 1030.3 | |
| 20260507054950 | 55 | 0.0 | 0.0 | 0.00 | 0.00 | 0.00 | 74 | 1030.4 | |
| 20260507053950 | 54 | 0.0 | 0.0 | 0.00 | 0.00 | 0.00 | 79 | 1030.3 | |
| 20260507052950 | 52 | 0.0 | 0.0 | 0.00 | 0.00 | 0.00 | 82 | 1030.3 | |
| 20260507051950 | 52 | 0.0 | 0.0 | 0.00 | 0.00 | 0.00 | 82 | 1030.3 | |
| 20260507050951 | 50 | 0.0 | 0.0 | 0.00 | 0.00 | 0.00 | 84 | 1030.4 | |
| 20260507045950 | 49 | 0.0 | 0.0 | 0.00 | 0.00 | 0.00 | 88 | 1030.3 | |
| 20260507044950 | 48 | 0.0 | 0.0 | 0.00 | 0.00 | 0.00 | 90 | 1030.3 | |
| 20260507043951 | 47 | 0.0 | 0.0 | 0.00 | 0.00 | 0.00 | 90 | 1030.2 | |
| 20260507042950 | 46 | 0.0 | 0.0 | 0.00 | 0.00 | 0.00 | 91 | 1030.2 | |
| 20260507041950 | 45 | 0.0 | 0.0 | 0.00 | 0.00 | 0.00 | 92 | 1030.2 | |
| 20260507040950 | 44 | 0.0 | 0.0 | 0.00 | 0.00 | 0.00 | 91 | 1030.1 | |
| 20260507035950 | 43 | 0.0 | 0.0 | 0.00 | 0.00 | 0.00 | 91 | 1029.9 | |
| 20260507034950 | 43 | 0.0 | 0.0 | 0.00 | 0.00 | 0.00 | 91 | 1029.9 | |
| 20260507033950 | 42 | 0.0 | 0.0 | 0.00 | 0.00 | 0.00 | 91 | 1029.7 | |
| 20260507032950 | 42 | 0.0 | 0.0 | 0.00 | 0.00 | 0.00 | 91 | 1029.6 | |
| 20260507031950 | 42 | 0.0 | 0.0 | 0.00 | 0.00 | 0.00 | 91 | 1029.5 | |
| 20260507030950 | 42 | 0.0 | 0.0 | 0.00 | 0.00 | 0.00 | 91 | 1029.4 | |
| 20260507025950 | 42 | 0.0 | 0.0 | 0.00 | 0.00 | 0.00 | 90 | 1029.5 | |
| 20260507024950 | 43 | 0.0 | 0.0 | 0.00 | 0.00 | 0.00 | 91 | 1029.4 | |
| 20260507023950 | 42 | 0.0 | 0.0 | 0.00 | 0.00 | 0.00 | 91 | 1029.4 | |
| 20260507022950 | 42 | 0.0 | 0.0 | 0.00 | 0.00 | 0.00 | 91 | 1029.3 | |
| 20260507021950 | 42 | 0.0 | 0.0 | 0.00 | 0.00 | 0.00 | 91 | 1029.2 | |
| 20260507020950 | 42 | 0.0 | 0.0 | 0.00 | 0.00 | 0.00 | 90 | 1029.2 | |
| 20260507015950 | 43 | 0.0 | 0.0 | 0.00 | 0.00 | 0.00 | 90 | 1029.2 | |
| 20260507014950 | 43 | 0.0 | 0.0 | 0.00 | 0.00 | 0.00 | 91 | 1029.1 | |
| 20260507013950 | 43 | 0.0 | 0.0 | 0.00 | 0.00 | 0.00 | 90 | 1029.1 | |
| 20260507012950 | 43 | 0.0 | 0.0 | 0.00 | 0.00 | 0.00 | 90 | 1029.1 | |
| 20260507011950 | 43 | 0.0 | 0.0 | 0.00 | 0.00 | 0.00 | 91 | 1029.1 | |
| 20260507010950 | 43 | 0.0 | 0.0 | 0.00 | 0.00 | 0.00 | 91 | 1029.0 | |
| 20260507005950 | 43 | 0.0 | 0.0 | 0.00 | 0.00 | 0.00 | 90 | 1028.9 | |
| 20260507004950 | 44 | 0.0 | 0.0 | 0.00 | 0.00 | 0.00 | 90 | 1029.0 | |
| 20260507003950 | 44 | 0.0 | 0.0 | 0.00 | 0.00 | 0.00 | 90 | 1029.0 | |
| 20260507002950 | 44 | 0.0 | 0.0 | 0.00 | 0.00 | 0.00 | 90 | 1028.9 | |
| 20260507001950 | 44 | 0.0 | 0.0 | 0.00 | 0.00 | 0.00 | 90 | 1028.8 | |
| 20260507000950 | 44 | 0.0 | 0.0 | 0.00 | 0.00 | 0.00 | 90 | 1028.8 | |
| 20260506235950 | 44 | 0.0 | 0.0 | 0.00 | 0.00 | 0.00 | 91 | 1028.8 | |
| 20260506234950 | 44 | 0.0 | 0.0 | 0.00 | 0.00 | 0.00 | 91 | 1028.8 | |
| 20260506233950 | 44 | 0.0 | 0.0 | 0.00 | 0.00 | 0.00 | 91 | 1028.8 | |
| 20260506232950 | 44 | 0.0 | 0.0 | 0.00 | 0.00 | 0.00 | 91 | 1028.8 |